Belize, Belize

1:14 PM CST on November 24, 2017 (GMT -0600)
Philip S W Goldson International

Weather History for MZBZ - December, 2012

Change the Weather History Date:

Monday, December 3, 2012

  Actual Average Record
Temperature  
Mean Temperature 76 °F -  
Max Temperature 81 °F - 86 °F (1997)
Min Temperature 72 °F 69 °F 64 °F (1999)
Cooling Degree Days 12    
Growing Degree Days 26 (Base 50)    
Moisture  
Dew Point 73 °F    
Average Humidity 85    
Maximum Humidity 100    
Minimum Humidity 67    
Precipitation  
Precipitation 0.47 in 0.23 in - ()
Sea Level Pressure  
Sea Level Pressure 30.03 in    
Wind  
Wind Speed 5 mph ()    
Max Wind Speed 10 mph    
Max Gust Speed -    
Visibility 7.1 miles    
Events Rain    
Averages and records for this station are not official NWS values.
T = Trace of Precipitation, MM = Missing Value Source: Averaged Metar Reports

Daily Weather History Graph

Daily Weather History Graph

Search for Another Location

Airport or City:

Trip Planner

Search our weather history database for the weather conditions in past years. The results will help you decide how hot, cold, wet, or windy it might be!

Date:

Astronomy

Dec. 03, 2012 Rise Set
Actual Time 6:08 AM CST 5:17 PM CST
Civil Twilight 5:45 AM CST 5:40 PM CST
Nautical Twilight 5:18 AM CST 6:07 PM CST
Astronomical Twilight 4:52 AM CST 6:34 PM CST
Moon 9:41 PM CST (12/3) 9:51 AM CST (12/3)
Length of Visible Light 11h 55m
Length of Day
11h 08m
Waning Gibbous, 78% of the Moon is Illuminated
Dec 3
Waning Gibbous
Dec 6
Last Quarter
Dec 13
New
Dec 19
First Quarter
Dec 28
Full

Hourly Weather History & Observations

Time (CST) Temp. Heat Index Dew Point Humidity Pressure Visibility Wind Dir Wind Speed Gust Speed Precip Events Conditions
12:00 AM 74 °F - 73 °F 94% 30.05 in 7 mi NNE 10.4 mph - - Rain Light Rain Showers
3:00 AM 73 °F - 72 °F 95% 30.01 in 12 mi West 2.3 mph - -   Partly Cloudy
6:00 AM 75 °F - 72 °F 89% 30.04 in 12 mi ENE 3.5 mph - -   Partly Cloudy
6:00 AM 75.2 °F - 73.4 °F 94% 30.04 in 6.2 mi ENE 3.5 mph - N/A   Mostly Cloudy
7:00 AM 73.4 °F - 73.4 °F 100% 30.06 in 3.7 mi NNW 3.5 mph - N/A   Mostly Cloudy
8:00 AM 73.4 °F - 73.4 °F 100% 30.06 in 3.7 mi NNW 3.5 mph - N/A   Mostly Cloudy
8:15 AM 73.4 °F - 73.4 °F 100% 30.07 in 0.6 mi North 2.3 mph - N/A Rain Rain Showers
8:45 AM 73.4 °F - 73.4 °F 100% 30.08 in 3.7 mi WNW 6.9 mph - N/A Rain Light Rain Showers
9:00 AM 79 °F - 71 °F 72% 30.09 in 6 mi WSW 2.3 mph - - Rain Light Rain Showers
9:00 AM - - - N/A% 30.08 in 5.6 mi WSW 2.3 mph - N/A   Mostly Cloudy
10:00 AM 77.0 °F - 73.4 °F 89% 30.07 in 6.2 mi NNW 6.9 mph - N/A   Mostly Cloudy
11:00 AM 75.2 °F - 71.6 °F 89% 30.06 in 6.2 mi East 5.8 mph - N/A   Mostly Cloudy
12:00 PM 77 °F - 74 °F 89% 30.05 in 11 mi Calm Calm - - Rain Light Rain Showers
12:00 PM 77.0 °F - 75.2 °F 94% 30.04 in 6.2 mi Calm Calm - N/A Rain Light Rain Showers
1:00 PM 80.6 °F 84.6 °F 71.6 °F 74% 30.01 in 6.2 mi ENE 8.1 mph - N/A   Mostly Cloudy
2:00 PM 80.6 °F 84.6 °F 71.6 °F 74% 29.99 in 6.2 mi ENE 9.2 mph - N/A   Mostly Cloudy
3:00 PM 81 °F - 72 °F 67% 29.99 in 12 mi ENE 10.4 mph - -   Partly Cloudy
3:00 PM 80.6 °F 84.6 °F 71.6 °F 74% 29.98 in 6.2 mi ENE 10.4 mph - N/A   Mostly Cloudy
4:00 PM 80.6 °F 84.6 °F 71.6 °F 74% 29.98 in 6.2 mi ENE 9.2 mph - N/A   Mostly Cloudy
5:00 PM 80.6 °F 84.6 °F 71.6 °F 74% 29.99 in 6.2 mi ENE 6.9 mph - N/A   Mostly Cloudy
6:00 PM 79 °F - 72 °F 73% 30.01 in 12 mi ENE 5.8 mph - -   Partly Cloudy
6:00 PM 78.8 °F - 71.6 °F 78% 30.00 in 6.2 mi ENE 5.8 mph - N/A   Mostly Cloudy
9:00 PM 78 °F - 73 °F 80% 30.04 in 12 mi ENE 3.5 mph - -   Mostly Cloudy